This is the latest recevied weather packets stored in our database for station/object KB1FFS. If no packets are shown the sender has not sent any weather packets the latest 10 day(s).
| Time | Temp. | Humidity | Pressure | Rain* | Wind** | Luminosity | Snow |
|---|---|---|---|---|---|---|---|
| 1787623727 | 37.22° C | 25% | 1013.1 hPa | 0 mm | - | 0 W/m² | - |
| 1787623426 | 37.22° C | 25% | 1012.9 hPa | 0 mm | - | 0 W/m² | - |
| 1787623125 | 37.22° C | 25% | 1012.7 hPa | 0 mm | - | 0 W/m² | - |
| 1787622821 | 37.22° C | 24% | 1012.5 hPa | 0 mm | - | 0 W/m² | - |
| 1787622518 | 37.78° C | 24% | 1012.5 hPa | 0 mm | - | 0 W/m² | - |
| 1787622213 | 37.78° C | 25% | 1012.6 hPa | 0 mm | - | 0 W/m² | - |
| 1787621913 | 37.78° C | 24% | 1012.5 hPa | 0 mm | - | 0 W/m² | - |
| 1787621608 | 37.78° C | 24% | 1012.4 hPa | 0 mm | - | 0 W/m² | - |
| 1787621304 | 38.33° C | 24% | 1012.4 hPa | 0 mm | - | 0 W/m² | - |
| 1787620999 | 38.33° C | 23% | 1012.3 hPa | 0 mm | - | 0 W/m² | - |
| 1787620695 | 38.33° C | 23% | 1012.3 hPa | 0 mm | - | 0 W/m² | - |
| 1787620390 | 38.33° C | 23% | 1012.2 hPa | 0 mm | - | 1 W/m² | - |
| 1787620087 | 38.89° C | 23% | 1012.1 hPa | 0 mm | - | 2 W/m² | - |
| 1787619786 | 38.89° C | 22% | 1011.9 hPa | 0 mm | - | 3 W/m² | - |
| 1787619482 | 38.89° C | 22% | 1012 hPa | 0 mm | - | 6 W/m² | - |
| 1787619176 | 39.44° C | 22% | 1011.9 hPa | 0 mm | - | 9 W/m² | - |
| 1787618875 | 39.44° C | 22% | 1011.9 hPa | 0 mm | - | 14 W/m² | - |
| 1787618573 | 39.44° C | 21% | 1012 hPa | 0 mm | - | 17 W/m² | - |
| 1787618269 | 40° C | 21% | 1011.8 hPa | 0 mm | - | 21 W/m² | - |
| 1787617965 | 40° C | 21% | 1011.8 hPa | 0 mm | - | 23 W/m² | - |
| 1787617665 | 40° C | 21% | 1011.8 hPa | 0 mm | - | 25 W/m² | - |
| 1787617360 | 40.56° C | 21% | 1011.9 hPa | 0 mm | - | 28 W/m² | - |
| 1787617059 | 40.56° C | 21% | 1011.8 hPa | 0 mm | - | 32 W/m² | - |
| 1787616754 | 41.11° C | 20% | 1011.9 hPa | 0 mm | - | 35 W/m² | - |
| 1787616454 | 41.67° C | 20% | 1011.7 hPa | 0 mm | - | 39 W/m² | - |
* Rain latest hour (hover to see other rain measurements)
** Current wind speed in m/s (hover to see current wind gust speed)